Regional Weather Roundup
Issued by NWS

Home | Current Version | Previous Version | Graphics & Text | Print | Product List | Glossary On
Versions: 1 2 3 4 5 6 7 8 9 10 11 12 13 14 15 16 17 18 19 20 21 22 23 24 25 26 27 28 29 30 31 32 33 34 35 36 37 38 39 40 41 42 43 44 45 46 47 48 49 50
000
ASUS43 KDTX 250710
RWRMI
MICHIGAN HOURLY REGIONAL WEATHER ROUNDUP
NATIONAL WEATHER SERVICE DETROIT/PONTIAC MI
300 AM EDT FRI APR 25 2014

NOTE: "FAIR" INDICATES FEW OR NO CLOUDS BELOW 12,000 FEET WITH NO
SIGNIFICANT WEATHER AND/OR OBSTRUCTION TO VISIBILITY.

MIZ047>049-052>055-059>063-066>070-074>076-081>083-250800-
SOUTHEAST LOWER MICHIGAN

CITY           SKY/WX    TMP DP  RH WIND       PRES   REMARKS
ADRIAN         CLOUDY    44  31  60 E10       29.76F
ALMA           CLOUDY    43  26  50 E9        29.80F
ANN ARBOR      CLOUDY    45  22  40 E9        29.78F
BAD AXE        CLOUDY    42  26  52 SE5       29.88S
CARO           CLOUDY    44  28  52 E6        29.82F
DETROIT CITY   CLOUDY    48  25  40 E10       29.82F
DETROIT        CLOUDY    46  22  38 NE7       29.80F
FLINT          CLOUDY    47  22  37 SE10      29.80F
GROSSE ILE     CLOUDY    45  25  45 E8        29.78F
HILLSDALE      CLOUDY    47  28  48 E12       29.73F
HOWELL         CLOUDY    46  18  33 SE12G18   29.77F

CITY           SKY/WX    TMP DP  RH WIND       PRES   REMARKS
JACKSON        CLOUDY    45  26  47 E10       29.75F
LAMBERTVILLE   MOCLDY    46  36  66 E5        29.77F
LANSING        CLOUDY    47  19  33 E6        29.77F
LAPEER         FAIR      43  20  40 E10       29.81F
MASON          CLOUDY    45  21  38 E7        29.76F
MONROE         MOCLDY    46  32  57 E8        29.77F
MT. CLEMENS    MOCLDY    45  28  50 E10       29.82F
PONTIAC        CLOUDY    44  22  41 E13       29.80F
PORT HOPE        N/A     41  33  73 SE9       29.87F
PORT HURON     PTCLDY    45  23  42 SE5       29.86S
TRI CITIES     CLOUDY    44  28  53 E9        29.82F
TROY           CLOUDY    46  25  44 E8        29.83F
SAGINAW HB     CLOUDY    43  28  56 E7        29.81F
YPSILANTI      CLOUDY    47  22  37 E8        29.80F
$$
MIZ043>046-050>051-056>058-064>065-071>073-077>080-250800-
SOUTHWEST LOWER MICHIGAN

CITY           SKY/WX    TMP DP  RH WIND       PRES   REMARKS
BATTLE CREEK   CLOUDY    46  26  45 CALM      29.75F
BENTON HARBOR  CLOUDY    46  37  71 E14       29.65F
BIG RAPIDS     CLOUDY    45  25  46 E7        29.77F
COLDWATER      CLOUDY    47  25  42 E8        29.73F
FREMONT        LGT RAIN  44  29  57 E7G16     29.74F
HOLLAND        LGT RAIN  45  35  68 E15       29.70F
GRAND RAPIDS   LGT RAIN  45  31  58 E12       29.75F
IONIA          CLOUDY    45  25  44 E7        29.76F
KALAMAZOO      LGT RAIN  45  34  65 E7        29.73F
LUDINGTON      LGT RAIN  41  35  81 SE9       29.73F
MARSHALL       CLOUDY    45  27  50 E5        29.74F
MOUNT PLEASANT CLOUDY    44  24  46 E7        29.79F
MUSKEGON       LGT RAIN  44  33  65 E12       29.72F
SOUTH HAVEN    CLOUDY    45  35  67 SE13G21   29.67F
$$
MIZ016>042-250800-
NORTHERN LOWER MICHIGAN

CITY           SKY/WX    TMP DP  RH WIND       PRES   REMARKS
ALPENA         CLOUDY    39  25  57 E8        29.90F WCI  33
BEAVER ISLAND  CLOUDY    38  24  56 E10       29.83F WCI  31
BELLAIRE       CLOUDY    44  17  34 E5        29.80F
CADILLAC       CLOUDY    40  25  54 E10       29.76F WCI  34
CHARLEVOIX     CLOUDY    42  20  41 E10       29.85F
FRANKFORT      LGT RAIN  40  33  74 E8        29.73F
GAYLORD        CLOUDY    39  15  37 E8        29.82F WCI  33
GRAYLING       CLOUDY    38  16  40 E10       29.83F WCI  31
HARBOR SPRINGS CLOUDY    42  19  40 E13G18    29.82F
HOUGHTON LAKE  CLOUDY    40  23  50 E9        29.81F WCI  34
MANISTEE       CLOUDY    41  34  75 E12       29.73F
OSCODA         CLOUDY    41  29  63 SE7       29.88F
PELLSTON       CLOUDY    41  17  38 E10       29.86F
ROGERS CITY    CLOUDY    39  25  57 E7        29.91F WCI  34
TRAVERSE CITY  LGT RAIN  44  23  43 E9        29.76F
$$
MIZ007>008-015-250800-
EASTERN UPPER MICHIGAN

CITY           SKY/WX    TMP DP  RH WIND       PRES   REMARKS
KINROSS        CLOUDY    37  28  70 E15G23    29.89F WCI  28
MACKINAC ISLAN CLOUDY    35  27  72 E16G24    29.87F WCI  26
NEWBERRY       CLOUDY    33  31  93 E9        29.84F WCI  25
S. S. MARIE    CLOUDY    36  30  79 E12G21    29.90F WCI  28
MUNISING         N/A     36  31  82 SE6       29.80F WCI  31
$$
MIZ004>006-011>014-085-250800-
CENTRAL UPPER MICHIGAN

CITY           SKY/WX    TMP DP  RH WIND       PRES   REMARKS
MANISTIQUE     CLOUDY    38  26  61 E16G22    29.82F WCI  30
ESCANABA       CLOUDY    37  28  70 E15       29.77S WCI  28
MENOMINEE      CLOUDY    37  34  87 E9        29.72F WCI  31
SAWYER-GWINN   CLOUDY    35  32  90 SE13G18   29.74F WCI  26
$$
MIZ001>003-009>011-084-250800-
WESTERN UPPER MICHIGAN

CITY           SKY/WX    TMP DP  RH WIND       PRES   REMARKS
IRON MOUNTAIN  LGT RAIN  35  31  85 SE10      29.71S FOG     WCI  27
HOUGHTON       SNOW      32  30  93 E18G30    29.75F VSB 1/2 WCI  20
COPPER HARBOR    N/A     34  32  92 S12G23    29.80F WCI  25
IRONWOOD       CLOUDY    36  32  87 SE7G18    29.61F WCI  30
$$

ABBREVIATIONS USED IN REMARKS
   TC - TEMPERATURE IN CELSIUS
  WCI - WIND CHILL INDEX
   HX - HEAT INDEX
  VSB - VISIBILITY




USA.gov is the U.S. government's official web portal to all federal, state and local government web resources and services.